Tracking 30995 objects as of 5-Jul-2025
HD Live streaming from Space Station
objects crossing your sky now

ARIANE 5 R/B

Track ARIANE 5 R/B now!
10-day predictions


NORAD ID: 29498
Int'l Code: 2006-043E
Perigee: 230.0 km
Apogee: 22,162.1 km
Inclination: 6.9 °
Period: 386.2 minutes
Semi major axis: 17567 km
RCS: 22.7915 m2 (large)
Launch date: October 13, 2006
Source: France (FR)
Launch site: FRENCH GUIANA (FRGUI)

Note: This is a ROCKET BODY
Your satellite tracking list
Your tracking list is empty




NASA's NSSDC Master Catalog

Two Line Element Set (TLE):
1 29498U 06043E   25186.17338786  .00012522  00000-0  87646-3 0  9996
2 29498   6.8676 152.9013 6242390  92.5626 335.3270  3.72868384203461
Source of the keplerian elements: AFSPC